Left ArrowRight Arrow

Hourly Observations for February 16, 2017

Temp ( °F °C ) Dew Point ( °F °C ) Humidity (%) Winds ( mph kmh ) Pressure ( in mb ) Visibility ( mi km ) Precip ( " mm )
12:53 am 00:53 Clear 31 -0.6 16 -8.9 54 54 W 5 7 29.94 1014 10 16 0.00 0.00
1:53 am 01:53 Clear 30 -1.1 16 -8.9 56 56 WSW 3 6 29.94 1014 10 16 0.00 0.00
2:53 am 02:53 Clear 27 -2.8 19 -7.2 72 72 Calm 29.93 1014 10 16 0.00 0.00
3:53 am 03:53 Clear 27 -2.8 20 -6.7 75 75 Calm 29.93 1013 10 16 0.00 0.00
4:53 am 04:53 Clear 27 -2.8 20 -6.7 75 75 Calm 29.94 1014 10 16 0.00 0.00
5:53 am 05:53 Clear 25 -3.9 19 -7.2 78 78 Calm 29.96 1015 10 16 0.00 0.00
6:53 am 06:53 Cloudy 27 -2.8 21 -6.1 78 78 Calm 29.99 1016 10 16 0.00 0.00
7:53 am 07:53 Cloudy 31 -0.6 19 -7.2 61 61 W 6 9 30.00 1016 10 16 0.00 0.00
8:53 am 08:53 Cloudy 33 0.6 20 -6.7 58 58 W 5 7 30.03 1017 10 16 0.00 0.00
9:53 am 09:53 Cloudy 35 1.7 20 -6.7 54 54 W 6 9 30.03 1017 10 16 0.00 0.00
10:53 am 10:53 Cloudy 37 2.8 18 -7.8 46 46 W 9 15 30.05 1018 10 16 0.00 0.00
11:53 am 11:53 Cloudy N/A N/A N/A W 13 20 N/A N/A 0.00 0.03
12:53 pm 12:53 Mostly Cloudy 44 6.7 15 -9.4 31 31 W 6 9 30.01 1016 10 16 0.00 0.00
1:53 pm 13:53 Mostly Cloudy 46 7.8 14 -10 27 27 WSW 7 11 29.98 1015 10 16 0.00 0.00
2:53 pm 14:53 Sunny 48 8.9 13 -10.6 24 24 VRB 6 9 29.96 1015 10 16 0.00 0.00
3:53 pm 15:53 Sunny 50 10 17 -8.3 27 27 W 14 22 29.97 1015 10 16 0.00 0.00
4:53 pm 16:53 Sunny 49 9.4 16 -8.9 27 27 W 7 11 29.97 1015 10 16 0.00 0.00
5:53 pm 17:53 Sunny 48 8.9 17 -8.3 29 29 WSW 7 11 29.97 1015 10 16 0.00 0.00
6:53 pm 18:53 Clear 46 7.8 16 -8.9 30 30 SW 5 7 29.96 1015 10 16 0.00 0.00
7:53 pm 19:53 Clear 43 6.1 18 -7.8 37 37 SSW 5 7 29.96 1014 10 16 0.00 0.00
8:53 pm 20:53 Clear 42 5.6 19 -7.2 40 40 S 5 7 29.94 1014 10 16 0.00 0.00
9:53 pm 21:53 Clear 40 4.4 19 -7.2 43 43 SSW 3 6 29.94 1014 10 16 0.00 0.00
10:53 pm 22:53 Clear 41 5 18 -7.8 39 39 SSW 5 7 29.94 1014 10 16 0.00 0.00
11:53 pm 23:53 Clear 36 2.2 21 -6.1 55 55 Calm 29.97 1015 10 16 0.00 0.00

Powered by Vaisala Xweather